[[{"header":{"parameterUnit":"m.s-1","parameterCategory":1,"la1":30.2991,"la2":30.254,"lo1":-89.0895,"lo2":-89.0444,"dy":0.0017,"dx":0.0017,"nx":28,"ny":28,"refTime":"2024-08-23T03:00:00:Z","depth":0,"parameterNumber":2,"parameterNumberName":"U-component_of_WINDS"},"data":[0,0,0,0,0,0,0,0,0,0,0,0,0,0,0,0,0,0,0,0,0,0,0,0,0,0,0,0,0,0,0,0,0,0,0,0,0,0,0,0,0,0,0,0,0,0,0,0,0,0,0,0,0,0,0,0,0,0,-5.5924,-5.5924,0,-5.5934,-5.5934,-5.5934,-5.5753,-5.5748,-5.5743,-5.5739,-5.5748,-5.5753,-5.5758,0,0,0,0,0,0,0,0,0,0,0,0,0,-5.5746,-5.575,-5.5924,-5.5924,-5.5924,-5.5934,-5.5934,-5.5934,-5.5754,-5.5748,-5.5742,-5.5736,-5.5747,-5.5753,-5.5758,0,0,0,0,0,0,0,0,0,0,0,0,0,-5.5796,-5.5751,-5.5924,-5.5835,-5.5827,-5.5934,-5.5934,-5.5934,-5.5755,-5.5748,-5.5741,-5.5734,-5.5745,-5.5752,-5.5759,-5.5951,0,0,-5.5781,-5.5784,0,0,0,0,0,0,0,0,-5.5794,-5.5803,-5.5848,-5.5842,-5.5833,-5.5835,-5.5875,-5.594,-5.5757,-5.5783,-5.5739,-5.573,-5.5783,-5.5787,-5.5805,-5.5951,-5.5951,-5.5782,-5.5786,-5.5789,-5.5791,0,0,0,0,0,0,0,-5.5791,-5.5802,-5.5928,-5.5849,-5.584,-5.5794,-5.5793,-5.5886,-5.5824,-5.578,-5.5767,-5.577,-5.5777,-5.5798,-5.5804,-5.5952,-5.5782,-5.5788,-5.5793,-5.5795,-5.6253,-5.6261,0,0,0,0,0,0,-5.5799,-5.58,-5.5927,-5.5928,-5.5795,-5.5804,-5.5802,-5.5842,-5.5822,-5.5812,-5.5777,-5.5762,-5.5789,-5.5795,-5.5803,-5.6024,-5.5789,-5.5796,-5.58,-5.6245,-5.6255,-5.6263,0,0,0,0,0,0,-5.5796,-5.5812,-5.5927,-5.586,-5.5872,-5.5814,-5.586,-5.5846,-5.5866,-5.582,-5.5808,-5.5809,-5.5784,-5.5793,-5.5915,-5.6022,-5.5799,-5.5806,-5.6236,-5.6248,-5.6259,-5.6469,0,0,0,0,0,0,-5.5792,-5.5812,-5.5885,-5.5863,-5.5876,-5.604,-5.5866,-5.5851,-5.5879,-5.586,-5.5847,-5.5838,-5.5779,-5.5905,-5.5922,-5.6028,-5.5812,-5.6226,-5.6242,-5.6255,-5.6452,-5.6486,-5.6515,0,0,0,0,0,-5.5786,-5.5944,-5.589,-5.5906,-5.5966,-5.6046,-5.6053,-5.5982,-5.5889,-5.596,-5.5931,-5.5839,-5.6008,-5.5919,-5.5937,-5.6046,-5.6219,-5.6237,-5.6254,-5.6438,-5.6479,-5.6515,0,0,0,0,0,0,-5.5979,-5.5939,-5.5879,-5.6034,-5.6045,-5.6015,-5.6104,-5.6028,-5.6065,-5.6046,-5.5955,-5.5954,-5.609,-5.608,-5.5982,-5.6229,-5.6097,-5.6119,-5.623,-5.627,-5.6301,-5.6299,-5.5818,0,0,0,0,0,-5.604,-5.6109,-5.6071,-5.6212,-5.622,-5.6162,-5.6194,-5.6138,-5.6145,-5.6149,-5.6128,-5.6138,-5.6193,-5.6231,-5.6279,-5.645,-5.6444,-5.6534,-5.6566,-5.6593,-5.6612,-5.6699,-5.6739,-5.6321,-5.6321,-5.6321,0,0,-5.6166,-5.6153,-5.6202,-5.625,-5.6251,-5.6324,-5.6167,-5.6251,-5.6303,-5.6161,-5.6274,-5.626,-5.6265,-5.6412,-5.6476,-5.6408,-5.6726,-5.6615,-5.6636,-5.6641,-5.6722,-5.6761,-5.6796,-5.6333,-5.6331,-5.6329,0,0,-5.6432,-5.643,-5.6546,-5.6551,-5.6555,-5.6516,-5.6544,-5.6526,-5.6511,-5.6623,-5.6517,-5.6579,-5.6676,-5.6684,-5.67,-5.697,-5.6886,-5.6988,-5.7153,-5.724,-5.7273,-5.7301,-5.7395,-5.743,-5.7008,-5.7009,-5.7009,0,-5.6588,-5.6693,-5.6615,-5.6706,-5.6729,-5.6605,-5.6721,-5.673,-5.675,-5.6769,-5.6693,-5.6812,-5.6807,-5.6953,-5.7018,-5.7037,-5.7065,-5.6988,-5.7274,-5.7302,-5.7328,-5.7416,-5.7452,-5.7021,-5.7019,-5.7018,-5.7017,0,-5.6883,-5.6958,-5.7052,-5.7074,-5.7108,-5.7212,-5.7148,-5.7192,-5.7134,-5.7102,-5.7217,-5.7207,-5.725,-5.7281,-5.7226,-5.7419,-5.7377,-5.729,-5.7154,-5.7381,-5.7462,-5.7496,-5.7038,-5.7034,-5.703,-5.7027,0,0,-5.7269,-5.7248,-5.7283,-5.7291,-5.7287,-5.7343,-5.744,-5.7483,-5.7521,-5.754,-5.7618,-5.7703,-5.7622,-5.7641,-5.7585,-5.7662,-5.7873,-5.7564,-5.7563,-5.762,-5.8084,-5.8148,-5.8188,-5.7818,-5.7825,-5.783,-5.8082,0,-5.7526,-5.769,-5.7623,-5.7793,-5.786,-5.7744,-5.7828,-5.7834,-5.7808,-5.786,-5.783,-5.7891,-5.7781,-5.7791,-5.7862,-5.7833,-5.7964,-5.7814,-5.7888,-5.7892,-5.7888,-5.8231,-5.8299,-5.8538,-5.8114,-5.8119,-5.8123,0,-5.7846,-5.7878,-5.8055,-5.8038,-5.8063,-5.8141,-5.8173,-5.8226,-5.823,-5.8205,-5.8227,-5.8154,-5.8247,-5.8115,-5.8241,-5.814,-5.8167,-5.8157,-5.8165,-5.8167,-5.802,-5.824,-5.8613,-5.8648,-5.8173,-5.8169,-5.8165,0,-5.8107,-5.8194,-5.831,-5.8321,-5.8305,-5.8361,-5.8357,-5.8355,-5.8384,-5.8413,-5.8431,-5.8471,-5.8493,-5.8525,-5.8464,-5.8374,-5.8599,-5.8461,-5.8579,-5.8581,-5.8629,-5.8627,-5.9009,-5.8652,-5.8651,-5.8651,-5.865,0,-5.8399,-5.8511,-5.8427,-5.8499,-5.862,-5.8542,-5.8665,-5.8648,-5.8647,-5.8712,-5.8615,-5.8678,-5.8595,-5.8651,-5.8604,-5.8714,-5.8726,-5.8707,-5.8693,-5.8714,-5.8716,-5.8729,-5.871,-5.866,-5.8658,-5.8656,-5.8655,0,-5.871,-5.8658,-5.8777,-5.8752,-5.8748,-5.8839,-5.8817,-5.8881,-5.8848,-5.8932,-5.8947,-5.8895,-5.8955,-5.8898,-5.8956,-5.8924,-5.9072,-5.9035,-5.907,-5.9058,-5.9178,-5.9167,-5.958,-5.9629,-5.9243,-5.9247,-5.925,0,-5.8898,-5.8981,-5.8965,-5.9002,-5.9004,-5.9065,-5.9094,-5.9021,-5.9055,-5.9067,-5.913,-5.9182,-5.9219,-5.932,-5.9287,-5.933,-5.9292,-5.9434,-5.9297,-5.9316,-5.9291,-5.9286,-5.9293,-5.9461,-5.9465,-5.9469,-5.9472,0,-5.9236,-5.9207,-5.9253,-5.9291,-5.9329,-5.9355,-5.9373,-5.9409,-5.9333,-5.9377,-5.9437,-5.9466,-5.9525,-5.9577,-5.961,-5.9604,-5.9526,-5.9516,-5.9544,-5.9566,-5.9582,-5.9572,-5.9143,-5.9506,-5.9502,-5.95,-5.9498,-5.9497,-5.9489,-5.9557,-5.9556,-5.9611,-5.9617,-5.9637,-5.9696,-5.967,-5.9719,-5.976,-5.9714,-5.9787,-5.9789,-5.9825,-5.9829,-5.9885,-5.9825,-5.9868,-5.9878,-5.9889,-5.9906,-5.9576,-5.9891,-5.989,-5.9889,-5.9888,-5.9887,0,-5.982,-5.9814,-5.9865,-5.9894,-5.9937,-5.986,-5.9877,-5.9917,-5.9983,-5.9991,-6.003,-6.0099,-6.0149,-6.0121,-6.0163,-6.0214,-6.0179,-6.0227,-6.0221,-6.0221,-5.9958,-5.9927,-6.0255,-6.0255,-6.0255,-6.0254,-6.0254,-6.0254,-5.9997,-6.0108,-6.0078,-6.0191,-6.0183,-6.0254,-6.027,-6.0287,-6.0293,-6.0374,-6.0415,-6.0396,-6.039,-6.0431,-6.0474,-6.0464,-6.0483,-6.0545,-6.0522,-6.0276,-6.024,-6.0205,-6.0176,-6.055,-6.0551,-6.078,-6.0782,-6.0784]},{"header":{"parameterUnit":"m.s-1","parameterCategory":1,"la1":30.2991,"la2":30.254,"lo1":-89.0895,"lo2":-89.0444,"dy":0.0017,"dx":0.0017,"nx":28,"ny":28,"refTime":"2024-08-23T03:00:00:Z","depth":0,"parameterNumber":3,"parameterNumberName":"V-component_of_WINDS"},"data":[0,0,0,0,0,0,0,0,0,0,0,0,0,0,0,0,0,0,0,0,0,0,0,0,0,0,0,0,0,0,0,0,0,0,0,0,0,0,0,0,0,0,0,0,0,0,0,0,0,0,0,0,0,0,0,0,0,0,0.6,0.5999,0,0.5946,0.5945,0.5945,0.5895,0.5895,0.5894,0.5893,0.5836,0.5835,0.5834,0,0,0,0,0,0,0,0,0,0,0,0,0,0.606,0.6059,0.6,0.5999,0.5999,0.5946,0.5945,0.5945,0.5895,0.5895,0.5894,0.5893,0.5836,0.5835,0.5834,0,0,0,0,0,0,0,0,0,0,0,0,0,0.6023,0.6059,0.6,0.5968,0.5964,0.5946,0.5945,0.5944,0.5895,0.5894,0.5894,0.5893,0.5836,0.5835,0.5834,0.5842,0,0,0.5829,0.5828,0,0,0,0,0,0,0,0,0.6025,0.602,0.5973,0.597,0.5966,0.5926,0.5945,0.591,0.5896,0.5921,0.5893,0.5892,0.5866,0.5862,0.5854,0.584,0.5837,0.5829,0.5828,0.5827,0.5827,0,0,0,0,0,0,0,0.6027,0.6023,0.5978,0.5972,0.5968,0.5956,0.595,0.5938,0.59,0.5919,0.5915,0.591,0.5864,0.5856,0.5853,0.5836,0.5829,0.5828,0.5827,0.5826,0.5828,0.5829,0,0,0,0,0,0,0.6035,0.6025,0.598,0.5977,0.5994,0.5955,0.5948,0.594,0.59,0.5893,0.5911,0.5908,0.5859,0.5854,0.585,0.5858,0.5827,0.5826,0.5825,0.5827,0.5828,0.5829,0,0,0,0,0,0,0.6037,0.6032,0.5982,0.6,0.5993,0.5955,0.5946,0.5939,0.5931,0.5893,0.5886,0.5909,0.5858,0.5852,0.5845,0.5856,0.5825,0.5824,0.5826,0.5827,0.5829,0.5875,0,0,0,0,0,0,0.6039,0.6032,0.6035,0.6,0.5992,0.5978,0.5947,0.5939,0.5929,0.5924,0.589,0.5883,0.5857,0.5848,0.5844,0.5853,0.5823,0.5825,0.5827,0.5828,0.5872,0.5878,0.5882,0,0,0,0,0,0.6041,0.6049,0.6036,0.603,0.5995,0.5979,0.5974,0.5944,0.593,0.5932,0.5909,0.5884,0.5856,0.5847,0.5843,0.5852,0.5824,0.5826,0.5828,0.587,0.5876,0.5882,0,0,0,0,0,0,0.6085,0.6044,0.6028,0.6026,0.6007,0.5971,0.5973,0.5952,0.5936,0.5932,0.5895,0.5888,0.5885,0.5868,0.5859,0.5859,0.5837,0.5838,0.587,0.5876,0.5881,0.5884,0.5822,0,0,0,0,0,0.6095,0.6086,0.605,0.6052,0.6043,0.601,0.6002,0.5981,0.5959,0.595,0.5926,0.5905,0.5891,0.5883,0.5868,0.587,0.5862,0.5874,0.5879,0.5884,0.5885,0.5885,0.5891,0.5836,0.5836,0.5836,0,0,0.6114,0.6091,0.6087,0.606,0.6042,0.6034,0.6003,0.5995,0.5988,0.5948,0.594,0.5923,0.5897,0.5895,0.5892,0.588,0.5899,0.5886,0.589,0.5889,0.5888,0.5893,0.5898,0.5838,0.5837,0.5837,0,0,0.6144,0.6126,0.6126,0.611,0.6084,0.6063,0.6063,0.6031,0.6018,0.601,0.598,0.5972,0.5949,0.5932,0.5921,0.5949,0.5926,0.5946,0.5971,0.5972,0.5977,0.598,0.599,0.5994,0.5947,0.5947,0.5947,0,0.6171,0.6157,0.6128,0.6122,0.6112,0.6078,0.6077,0.6063,0.6033,0.6027,0.6014,0.5986,0.5967,0.5961,0.5968,0.596,0.5959,0.5948,0.5979,0.5982,0.5985,0.5994,0.5998,0.595,0.5949,0.5949,0.5949,0,0.6192,0.6183,0.6186,0.616,0.615,0.6147,0.6117,0.6111,0.6092,0.6072,0.6065,0.6041,0.6021,0.6019,0.5999,0.601,0.6004,0.5986,0.5962,0.5993,0.6001,0.6004,0.5953,0.5952,0.5952,0.5951,0,0,0.6245,0.6206,0.6207,0.6196,0.6167,0.616,0.6156,0.6138,0.6133,0.6116,0.6111,0.6095,0.6078,0.6065,0.6044,0.6046,0.607,0.6027,0.6026,0.6036,0.6081,0.6095,0.6099,0.6056,0.6056,0.6057,0.6083,0,0.6271,0.6262,0.6237,0.6236,0.6228,0.6197,0.6194,0.6176,0.6158,0.6149,0.6129,0.6117,0.6097,0.6089,0.6089,0.6067,0.6079,0.6065,0.6051,0.6051,0.6057,0.6103,0.6116,0.6143,0.6086,0.6087,0.6087,0,0.6298,0.6284,0.6282,0.6256,0.6251,0.6249,0.6232,0.6223,0.6203,0.619,0.6178,0.6155,0.615,0.613,0.6122,0.6114,0.6107,0.6096,0.6096,0.6092,0.607,0.61,0.615,0.6154,0.6092,0.6091,0.6091,0,0.6337,0.6317,0.6314,0.6306,0.6275,0.6274,0.6261,0.624,0.6232,0.6217,0.6211,0.6196,0.6187,0.6176,0.615,0.6138,0.6145,0.6123,0.6134,0.6135,0.6135,0.6135,0.6184,0.6133,0.6133,0.6133,0.6133,0,0.6367,0.6367,0.6332,0.633,0.633,0.6301,0.6302,0.6286,0.6268,0.6263,0.6236,0.6231,0.6198,0.6189,0.6169,0.6166,0.6163,0.6152,0.6146,0.6154,0.6155,0.6147,0.6144,0.6134,0.6134,0.6133,0.6133,0,0.6409,0.6386,0.638,0.6353,0.6346,0.6347,0.6323,0.632,0.6302,0.6296,0.6292,0.6264,0.6253,0.6227,0.6208,0.6195,0.6197,0.6187,0.6204,0.62,0.6213,0.6212,0.6257,0.6262,0.6209,0.621,0.621,0,0.6429,0.6429,0.6402,0.6397,0.6385,0.6377,0.637,0.6343,0.6336,0.6314,0.6314,0.6302,0.629,0.6274,0.6251,0.6238,0.6227,0.6244,0.6224,0.6232,0.6227,0.6226,0.6226,0.6248,0.6248,0.6249,0.625,0,0.6467,0.6456,0.6446,0.6433,0.6425,0.6412,0.6399,0.6396,0.6366,0.636,0.6349,0.634,0.6323,0.6311,0.6295,0.6281,0.626,0.6257,0.6258,0.6265,0.6274,0.6269,0.6215,0.6255,0.6254,0.6254,0.6254,0.6253,0.6498,0.6497,0.6478,0.6469,0.6456,0.6445,0.6441,0.6424,0.6415,0.64,0.6385,0.6376,0.6357,0.6333,0.6322,0.6314,0.6303,0.6306,0.6306,0.6307,0.6311,0.6277,0.6311,0.6311,0.6311,0.6311,0.6311,0,0.6534,0.6521,0.6513,0.6496,0.6489,0.6472,0.6457,0.6452,0.6445,0.643,0.642,0.6409,0.6398,0.6375,0.6362,0.6361,0.6351,0.6358,0.6357,0.6355,0.6321,0.6321,0.6366,0.6366,0.6366,0.6366,0.6366,0.6366,0.6552,0.6549,0.6537,0.6529,0.6516,0.6508,0.6501,0.6491,0.6479,0.6468,0.6459,0.6445,0.6428,0.6414,0.6403,0.6397,0.6393,0.6403,0.6393,0.6362,0.6357,0.6352,0.6351,0.6402,0.6402,0.6427,0.6428,0.6428]}]]